Regional Weather Roundup
Issued by NWS

Home | Current Version | Previous Version | Graphics & Text | Print | Product List | Glossary On
Versions: 1 2 3 4 5 6 7 8 9 10 11 12 13 14 15 16 17 18 19 20 21 22 23 24 25 26 27 28 29 30 31 32 33 34 35 36 37 38 39 40 41 42 43 44 45 46 47 48 49 50
000
ASUS43 KDTX 291801
RWRMI
MICHIGAN HOURLY REGIONAL WEATHER ROUNDUP
NATIONAL WEATHER SERVICE DETROIT/PONTIAC MI
100 PM EST THU JAN 29 2015

NOTE: "FAIR" INDICATES FEW OR NO CLOUDS BELOW 12,000 FEET WITH NO
SIGNIFICANT WEATHER AND/OR OBSTRUCTION TO VISIBILITY.

MIZ047>049-052>055-059>063-066>070-074>076-081>083-291900-
SOUTHEAST LOWER MICHIGAN

CITY           SKY/WX    TMP DP  RH WIND       PRES   REMARKS
ADRIAN         LGT SNOW  34  30  85 NW6       29.73S FOG     WCI  29
6HR MIN TEMP:  29; 6HR MAX TEMP:  35; 6HR PCP: TRACE;

ALMA           LGT SNOW  29  27  94 NW6       29.76S VSB 1   WCI  23
ANN ARBOR      CLOUDY    33  28  81 W5        29.71F WCI  29
BAD AXE        FLURRIES  28  25  89 W6        29.73F WCI  21
6HR MIN TEMP:  25; 6HR MAX TEMP:  28;

CARO           MIX PCPN  29  26  86 CALM      29.73F
DETROIT CITY   CLOUDY    37  27  67 W5        29.71F WCI  33
6HR MIN TEMP:  31; 6HR MAX TEMP:  37; 6HR PCP: TRACE;

DETROIT        CLOUDY    35  27  72 W5        29.72F WCI  31
6HR MIN TEMP:  29; 6HR MAX TEMP:  35; 6HR PCP:  0.01;

FLINT          CLOUDY    32  26  78 NW7       29.73F HAZE    WCI  26
6HR MIN TEMP:  30; 6HR MAX TEMP:  34; 6HR PCP:  0.03;

GROSSE ILE     CLOUDY    36  30  80 CALM      29.70F
HILLSDALE      CLOUDY    35  32  87 NW9       29.71S WCI  28
6HR MIN TEMP:  29; 6HR MAX TEMP:  35;

HOWELL         CLOUDY    32  27  81 W5        29.71F WCI  27
6HR MIN TEMP:  27; 6HR MAX TEMP:  32;


CITY           SKY/WX    TMP DP  RH WIND       PRES   REMARKS
JACKSON        LGT SNOW  33  28  81 W8        29.72F WCI  26
6HR MIN TEMP:  29; 6HR MAX TEMP:  33; 6HR PCP:  0.01;

LAMBERTVILLE   CLOUDY    41  32  70 SW8       29.72S
LANSING        LGT SNOW  31  26  82 NW10      29.75S WCI  22
6HR MIN TEMP:  30; 6HR MAX TEMP:  32; 6HR PCP: TRACE;

LAPEER         CLOUDY    30  25  80 NW3       29.73S
MASON          CLOUDY    32  26  78 NW6       29.73S WCI  26
MONROE         CLOUDY    37  30  75 W5        29.70S WCI  34
MT. CLEMENS    CLOUDY    33  26  75 CALM      29.70F
6HR MIN TEMP:  28; 6HR MAX TEMP:  33; 6HR PCP: TRACE;

PONTIAC        LGTSLEET  31  24  75 W6        29.69F WCI  25
6HR MIN TEMP:  27; 6HR MAX TEMP:  31; 6HR PCP: TRACE;

PORT HOPE        N/A     28  23  81 VRB3      29.72F
6HR MIN TEMP:  25; 6HR MAX TEMP:  28; 6HR PCP:  0.15;

PORT HURON     CLOUDY    32  25  74 CALM      29.72F
TRI CITIES     LGT SNOW  31  26  82 NW5       29.75F WCI  26
6HR MIN TEMP:  28; 6HR MAX TEMP:  31; 6HR PCP:  0.03;

TROY           CLOUDY    35  25  67 W3        29.73F
SAGINAW HB     CLOUDY    32  28  86 W3        29.74F
$$
MIZ043>046-050>051-056>058-064>065-071>073-077>080-291900-
SOUTHWEST LOWER MICHIGAN

CITY           SKY/WX    TMP DP  RH WIND       PRES   REMARKS
BATTLE CREEK   LGT SNOW  33  30  88 NW10      29.76S VSB 1   WCI  25
6HR MIN TEMP:  33; 6HR MAX TEMP:  36; 6HR PCP:  0.02;

BENTON HARBOR  CLOUDY    33  31  92 NW10G22   29.84R FOG     WCI  25
6HR MIN TEMP:  33; 6HR MAX TEMP:  36; 6HR PCP:  0.01;

BIG RAPIDS     FLURRIES  31  28  89 NW13      29.77S WCI  22
6HR MIN TEMP:  26; 6HR MAX TEMP:  31; 6HR PCP:  0.01;

COLDWATER      LGT SNOW  34  30  85 NW9       29.74R WCI  26
6HR MIN TEMP:  31; 6HR MAX TEMP:  35;

FREMONT        LGT SNOW  31  28  89 NW18      29.80S WCI  19
HOLLAND        LGT SNOW  34  29  82 NW14      29.82R WCI  25
6HR MIN TEMP:  32; 6HR MAX TEMP:  34; 6HR PCP:  0.02;

GRAND RAPIDS   LGT SNOW  32  28  85 NW13      29.78S FOG     WCI  22
6HR MIN TEMP:  30; 6HR MAX TEMP:  32; 6HR PCP:  0.03;

IONIA          LGT SNOW  31  30  95 NW7       29.75S WCI  24
KALAMAZOO      LGT SNOW  34  30  85 NW13      29.77S FOG     WCI  25
6HR MIN TEMP:  32; 6HR MAX TEMP:  34; 6HR PCP:  0.02;

LUDINGTON      CLOUDY    34  30  84 N17G28    29.84R FOG     WCI  24
6HR MIN TEMP:  30; 6HR MAX TEMP:  36;

MARSHALL       LGT SNOW  32  29  90 NW9       29.74R WCI  24
MOUNT PLEASANT LGT SNOW  29  26  88 W6        29.76S WCI  23
6HR MIN TEMP:  26; 6HR MAX TEMP:  29; 6HR PCP:  0.01;

MUSKEGON       LGT SNOW  33  28  81 NW20G25   29.82R WCI  21
6HR MIN TEMP:  30; 6HR MAX TEMP:  33; 6HR PCP:  0.02;

SOUTH HAVEN    CLOUDY    34  32  92 NW14G22   29.82R FOG     WCI  25
$$
MIZ016>042-291900-
NORTHERN LOWER MICHIGAN

CITY           SKY/WX    TMP DP  RH WIND       PRES   REMARKS
ALPENA         LGT SNOW  26  23  88 NW6       29.75F FOG     WCI  19
6HR MIN TEMP:  23; 6HR MAX TEMP:  26; 6HR PCP:  0.34;

BEAVER ISLAND  CLOUDY    31  30  96 NW8       29.79F FOG     WCI  23
6HR MIN TEMP:  27; 6HR MAX TEMP:  31;

BELLAIRE       CLOUDY    30  26  87 W3        29.80S
6HR MIN TEMP:  25; 6HR MAX TEMP:  30;

CADILLAC       CLOUDY    29  26  88 NW12      29.75S WCI  19
CHARLEVOIX     CLOUDY    30  28  92 NW9       29.82S FOG     WCI  22
6HR MIN TEMP:  25; 6HR MAX TEMP:  30;

FRANKFORT      CLOUDY    32  29  87 N12G21    29.83S WCI  23
GAYLORD        CLOUDY    26  25  96 W6        29.74S FOG     WCI  19
6HR MIN TEMP:  21; 6HR MAX TEMP:  26; 6HR PCP:  0.17;

GRAYLING       CLOUDY    28  25  87 NW9       29.75S WCI  19
6HR MIN TEMP:  22; 6HR MAX TEMP:  28;

HARBOR SPRINGS MIX PCPN  27  25  93 SW5       29.77F WCI  21
HOUGHTON LAKE  LGT SNOW  28  24  85 NW9       29.74S FOG     WCI  19
6HR MIN TEMP:  23; 6HR MAX TEMP:  28; 6HR PCP:  0.12;

MANISTEE       CLOUDY    32  27  80 N14G24    29.84R WCI  22
OSCODA         LGT SNOW  27  25  91 W6        29.73F WCI  21
PELLSTON       CLOUDY    30  25  81 NW9       29.77F WCI  22
6HR MIN TEMP:  25; 6HR MAX TEMP:  30; 6HR PCP:  0.03;

ROGERS CITY    CLOUDY    28  26  90 W8        29.77F FOG     WCI  20
TRAVERSE CITY  LGT SNOW  32  27  81 N13       29.80R FOG     WCI  22
6HR MIN TEMP:  25; 6HR MAX TEMP:  32; 6HR PCP:  0.17;

$$
MIZ007>008-015-291900-
EASTERN UPPER MICHIGAN

CITY           SKY/WX    TMP DP  RH WIND       PRES   REMARKS
KINROSS        CLOUDY    28  27  93 W6        29.74F WCI  22
6HR MIN TEMP:  23; 6HR MAX TEMP:  28;

MACKINAC ISLAN CLOUDY    28  27  96 W8        29.75F FOG     WCI  20
6HR MIN TEMP:  25; 6HR MAX TEMP:  28; 6HR PCP:  0.01;

NEWBERRY       CLOUDY    29  29  99 NW8       29.76S FOG     WCI  21
6HR MIN TEMP:  22; 6HR MAX TEMP:  29;

S. S. MARIE    CLOUDY    27  22  81 W3        29.73F
6HR MIN TEMP:  24; 6HR MAX TEMP:  27; 6HR PCP:  0.08;

MUNISING         N/A     27  22  81 NW25G39   29.87R WCI  12
6HR MIN TEMP:  27; 6HR MAX TEMP:  33;

$$
MIZ004>006-011>014-085-291900-
CENTRAL UPPER MICHIGAN

CITY           SKY/WX    TMP DP  RH WIND       PRES   REMARKS
MANISTIQUE     CLOUDY    30  26  83 NW16G24   29.81S WCI  19
6HR MIN TEMP:  29; 6HR MAX TEMP:  31;

ESCANABA       CLOUDY    32  21  64 NW15G24   29.86F WCI  22
6HR MIN TEMP:  28; 6HR MAX TEMP:  32;

MENOMINEE      CLOUDY    32  23  69 N10G23    29.89S WCI  24
6HR MIN TEMP:  28; 6HR MAX TEMP:  32;

SAWYER-GWINN   LGT SNOW  27  23  86 N18G25    29.87R WCI  13
$$
MIZ001>003-009>011-084-291900-
WESTERN UPPER MICHIGAN

CITY           SKY/WX    TMP DP  RH WIND       PRES   REMARKS
HOUGHTON       CLOUDY    23  18  81 NW24G32   29.96R WCI   7
6HR MIN TEMP:  23; 6HR MAX TEMP:  30; 6HR PCP: TRACE;

COPPER HARBOR    N/A     20  16  84 NE29G40   29.97R WCI   1
6HR MIN TEMP:  20; 6HR MAX TEMP:  32;

IRONWOOD       CLOUDY    25  19  80 NW21G29   30.03R WCI  10
6HR MIN TEMP:  25; 6HR MAX TEMP:  28;

$$

ABBREVIATIONS USED IN REMARKS
   TC - TEMPERATURE IN CELSIUS
  WCI - WIND CHILL INDEX
   HX - HEAT INDEX
  VSB - VISIBILITY



USA.gov is the U.S. government's official web portal to all federal, state and local government web resources and services.